Regional Weather Roundup
Issued by NWS San Diego, CA

Home | Current Version | Previous Version | Text Only | Print | Product List | Glossary On
Versions: 1 2 3 4 5 6 7 8 9 10 11 12 13 14 15 16 17 18 19 20 21 22 23 24 25 26 27 28 29 30 31 32 33 34 35 36 37 38 39 40 41 42 43 44 45 46 47 48 49 50
000
ASUS46 KSGX 291711
RWRSGX

SAN DIEGO HOURLY WEATHER ROUNDUP
NATIONAL WEATHER SERVICE SAN DIEGO CA
1000 AM PDT SUN MAY 29 2016

NOTE: "FAIR" INDICATES FEW OR NO CLOUDS BELOW 12,000 FEET WITH NO
SIGNIFICANT WEATHER AND/OR OBSTRUCTIONS TO VISIBILITY.

CAZ042-043-060-061-PZZ750-775-291800-

GREATER SAN DIEGO AREA

CITY           SKY/WX    TMP DP  RH WIND       PRES   REMARKS
LINDBERGH FLD  PTSUNNY   63  55  77 NW7       30.04R
POINT LOMA       N/A     60  54  80 W10         N/A
NATIONAL CITY    N/A     61  59  92 W2        30.03S
CHULA VISTA      N/A     61  59  93 W6        29.95R
IMPERIAL BEACH CLOUDY    66  56  70 NW9       30.03S
BROWN FIELD    CLOUDY    60  58  92 NW5       30.02S
MIRAMAR MCAS   DRIZZLE   63  57  81 NW7       30.02S
MONTGOMERY FLD CLOUDY    62  56  80 NW6       30.02S HAZE

$$

NORTH SAN DIEGO COUNTY

CITY           SKY/WX    TMP DP  RH WIND       PRES   REMARKS
CAMP PENDLETON CLOUDY    64  56  75 SW7       30.01S
OCEANSIDE AP   CLOUDY    64  54  69 W7        30.01S
OCEANSIDE HBR    N/A     63  59  87 W9        30.04S
VISTA            N/A     62  57  82 CALM      30.00R
CARLSBAD       CLOUDY    62  56  80 W6        30.01S
DEL MAR          N/A     60  58  92 CALM      30.05S
LA JOLLA SCRIP   N/A     60  57  89 W3        30.02S
FALLBROOK        N/A     63  59  88 S1        30.01S
ESCONDIDO        N/A     61  58  90 SW3       30.03S
SAN MARCOS       N/A     61  53  75 W3        30.00S
POWAY            N/A     60  57  91 CALM      30.04R

$$

EAST SAN DIEGO COUNTY

CITY           SKY/WX    TMP DP  RH WIND       PRES   REMARKS
RAMONA         CLOUDY    59  55  87 NW7       30.02S
SANTEE LAKES     N/A     60  58  92 CALM      30.01S
LA MESA          N/A     59  57  95 CALM      29.95S
DESCANSO N       N/A     54  52  95 CALM      29.86R
MT. LAGUNA OBS   N/A     57  33  41 NE10      29.67R
CAMPO            N/A     61  52  72 SW9       29.97F

$$

ORANGE COUNTY AND THE LOS ANGELES BASIN

CITY           SKY/WX    TMP DP  RH WIND       PRES   REMARKS
JOHN WAYNE AP  CLOUDY    63  54  72 CALM      30.02S
LAKE FOREST FR   N/A     62  53  72 CALM      29.91S
HUNTINGTON BCH   N/A     67  58  72 SW5       30.04S
LOS ALAMITOS   CLOUDY    66  55  66 SW3       30.02S
FULLERTON      CLOUDY    67  52  58 CALM      30.01S
LONG BEACH     CLOUDY    65  54  67 CALM      30.02S
L.A. AP        PTSUNNY   65  53  65 SW7       30.02S
L.A. DOWNTOWN  CLOUDY    64  54  69 CALM      30.02R

$$

THE INLAND EMPIRE

CITY           SKY/WX    TMP DP  RH WIND       PRES   REMARKS
CORONA         CLOUDY    63  54  72 NW3       30.02S
CHINO          CLOUDY    65  54  67 SW6       30.03S
ONTARIO        CLOUDY    60  54  80 W5        30.02S
SAN BERNARDINO CLOUDY    63  54  72 SW7       30.02S HAZE
RIVERSIDE AP   CLOUDY    62  54  74 VRB3      30.02S
MORENO VALLEY    N/A     59  58  96 NW2       28.12S
MARCH ARB      CLOUDY    62  55  80 N8        30.01S
HORSETHIEF CYN   N/A     61  52  71 NE7       30.02S
PERRIS           N/A     61  56  85 W3        30.01S
HEMET EAST       N/A     58  52  80 CALM      29.88R
FRENCH VALLEY  CLOUDY    61  54  77 CALM      30.02S
TEMECULA         N/A     62  58  85 SW2       29.98S

$$

SAN BERNARDINO AND RIVERSIDE COUNTY MOUNTAINS

CITY           SKY/WX    TMP DP  RH WIND       PRES   REMARKS
BIG BEAR AP    SUNNY     59  30  33 NE10      30.15S
PINE COVE        N/A     60  38  43 W1        29.89R

$$

SOUTHERN DESERT INCLUDING THE COACHELLA VALLEY

CITY           SKY/WX    TMP DP  RH WIND       PRES   REMARKS
PALM SPRINGS   SUNNY     79  48  33 E5        29.93S
THOUSAND PALMS   N/A     80  50  34 W3        29.89S
PALM DESERT      N/A     81  53  37 CALM      30.21S
THERMAL        SUNNY     82  46  28 VRB6      29.89S
BLYTHE         SUNNY     83  39  21 S7        29.91S
IMPERIAL AP    SUNNY     80  55  42 E9        29.88F
EL CENTRO NAS  SUNNY     78  52  40 VRB6      29.90F
YUMA AZ        SUNNY     81  46  29 S13       29.91
MEXICALI       SUNNY     77  57  50 SE9       29.90S

$$

UPPER DESERT

CITY           SKY/WX    TMP DP  RH WIND       PRES   REMARKS
VICTORVILLE AP MOSUNNY   75  37  25 CALM      29.98F
HESPERIA         N/A     74  43  32 N3        30.00S
PALMDALE       SUNNY     78  37  22 VRB3      29.97F
LANCASTER      SUNNY     80  38  22 CALM      29.96S
EDWARDS AFB    MOSUNNY   76  40  27 VRB5      29.94F
DAGGETT        SUNNY     79  41  25 VRB6      29.94S
29 PALMS N     MOSUNNY   78  36  21 SE12      30.02S
NEEDLES        SUNNY     87  28  12 S8        29.93R

$$

REGIONAL REPORTS

CITY           SKY/WX    TMP DP  RH WIND       PRES   REMARKS
SANTA BARBARA  CLOUDY    59  55  87 VRB3      30.03S FOG
SANDBERG       LGT RAIN  72  36  26 N16G23    30.08S
LAS VEGAS NV   MOSUNNY   83  27  13 E6        29.92S
PHOENIX AZ     SUNNY     85  35  16 VRB5      29.93F
TIJUANA        CLOUDY    61  54  77 NW7       30.04F FOG
ENSENADA NW      N/A     62  32  31 W6        30.00R

$$

OFFSHORE ISLANDS

CITY           SKY/WX    TMP DP  RH WIND       PRES   REMARKS
CATALINA ARPT  CLOUDY    55  52  89 N3        30.04S
SAN NICOLAS IS CLOUDY   N/A N/A N/A S7        30.03S

$$

MARINE AND OFFSHORE BUOY REPORTS

STATION/POSITION SKY/WX   TEMP    WIND        PRES    SWELL
                          AIR SEA DIR/SP/G            HT/PER/DIR
                          (F)     (DEG/KT/KT) (MB)    (FT/S/D)
TANNER BANKS               60 61  320/  2/  2 1016.9R   5/330/10
S CLEMENTE BASIN           60 63  250/  6/  8 1016.7R   5/150/15
SAN NICOLAS IS.               59                N/A     3/170/14
SO. S. ROSA ISLA           57 58  220/  2/  4 1017.2R   5/310/ 9
W. S. BARBARA CH           56 55   20/  2/  4 1017.0R   5/300/ 9
M. S. BARBARA CH           57 57  210/  2/  4 1017.5R
S. MONICA BASIN            60 63  270/  4/  6 1017.1R   3/180/14
S PEDRO CHANNEL               62                N/A     2/170/15
OCEANSIDE OFFSHR              64                N/A     2/190/14
TORREY PINES OTR              65                N/A     2/190/13
LA JOLLA 1                 61 62  290/  1/  3 1016.5R
SAN DIEGO BAY                 68              1016.8R
POINT LOMA SOUTH              65                N/A     3/190/14

$$




USA.gov is the U.S. government's official web portal to all federal, state and local government web resources and services.